Dodge City, KS

5:35 AM CST on February 08, 2016 (GMT -0600)
Dodge City Regional

Weather History for KDDC - August, 2013

Change the Weather History Date:

Sunday, August 18, 2013

  Actual Average Record
Temperature  
Mean Temperature 72 °F -  
Max Temperature 82 °F 89 °F 106 °F (2011)
Min Temperature 62 °F 65 °F 53 °F (1960)
Cooling Degree Days 7    
Growing Degree Days 22 (Base 50)    
Moisture  
Dew Point 61 °F    
Average Humidity 71    
Maximum Humidity 94    
Minimum Humidity 40    
Precipitation  
Precipitation 0.00 in - - ()
Sea Level Pressure  
Sea Level Pressure 30.03 in    
Wind  
Wind Speed 14 mph (SSE)    
Max Wind Speed 23 mph    
Max Gust Speed 30 mph    
Visibility 8 miles    
Events      
Averages and records for this station are not official NWS values.
T = Trace of Precipitation, MM = Missing Value Source: NWS Daily Summary

Daily Weather History Graph

Daily Weather History Graph

Search for Another Location

Airport or City:

Trip Planner

Search our weather history database for the weather conditions in past years. The results will help you decide how hot, cold, wet, or windy it might be!

Date:

Astronomy

Aug. 18, 2013 Rise Set
Actual Time 6:58 AM CDT 8:28 PM CDT
Civil Twilight 6:30 AM CDT 8:56 PM CDT
Nautical Twilight 5:57 AM CDT 9:29 PM CDT
Astronomical Twilight 5:22 AM CDT 10:04 PM CDT
Moon 6:34 PM CDT (8/18) 4:11 AM CDT (8/18)
Length of Visible Light 14h 25m
Length of Day
13h 30m
Waxing Gibbous, 92% of the Moon is Illuminated
Aug 18
Waxing Gibbous
Aug 20
Full
Aug 28
Last Quarter
Sep 5
New
Sep 12
First Quarter

Hourly Weather History & Observations

Time (CDT) Temp. Heat Index Dew Point Humidity Pressure Visibility Wind Dir Wind Speed Gust Speed Precip Events Conditions
12:52 AM 66.9 °F - 62.1 °F 84% 30.06 in 7.0 mi SE 12.7 mph - N/A   Overcast
1:52 AM 66.0 °F - 61.0 °F 84% 30.06 in 7.0 mi SE 13.8 mph - N/A   Scattered Clouds
2:52 AM 64.9 °F - 60.1 °F 84% 30.05 in 7.0 mi SSE 11.5 mph - N/A   Mostly Cloudy
3:52 AM 64.0 °F - 60.1 °F 87% 30.04 in 7.0 mi SSE 11.5 mph - N/A   Partly Cloudy
4:52 AM 63.0 °F - 59.0 °F 87% 30.05 in 7.0 mi SSE 12.7 mph - N/A   Partly Cloudy
5:52 AM 62.1 °F - 59.0 °F 90% 30.05 in 6.0 mi SSE 12.7 mph - N/A   Scattered Clouds
6:52 AM 62.1 °F - 59.0 °F 90% 30.06 in 5.0 mi SSE 13.8 mph - N/A   Mostly Cloudy
7:52 AM 63.0 °F - 60.1 °F 90% 30.06 in 3.0 mi SSE 15.0 mph - N/A   Clear
8:03 AM 62.6 °F - 60.8 °F 94% 30.13 in 3.0 mi SSE 11.5 mph - N/A   Partly Cloudy
8:52 AM 64.9 °F - 61.0 °F 87% 30.06 in 5.0 mi SSE 13.8 mph - N/A   Clear
9:52 AM 70.0 °F - 61.0 °F 73% 30.05 in 7.0 mi SSE 19.6 mph 27.6 mph N/A   Clear
10:52 AM 73.0 °F - 61.0 °F 66% 30.05 in 8.0 mi South 18.4 mph 25.3 mph N/A   Clear
11:52 AM 75.0 °F - 61.0 °F 62% 30.04 in 9.0 mi SSE 17.3 mph 29.9 mph N/A   Clear
12:52 PM 77.0 °F - 62.1 °F 60% 30.03 in 9.0 mi SSE 23.0 mph 27.6 mph N/A   Clear
1:52 PM 79.0 °F - 62.1 °F 56% 30.02 in 9.0 mi SSE 16.1 mph 27.6 mph N/A   Partly Cloudy
2:52 PM 80.1 °F 81.2 °F 62.1 °F 54% 30.00 in 9.0 mi SSE 17.3 mph 26.5 mph N/A   Partly Cloudy
3:52 PM 81.0 °F 81.7 °F 61.0 °F 50% 29.99 in 10.0 mi South 17.3 mph 24.2 mph N/A   Clear
4:52 PM 82.0 °F 83.0 °F 62.1 °F 51% 29.97 in 10.0 mi SSE 13.8 mph 25.3 mph N/A   Clear
5:52 PM 82.0 °F 82.7 °F 61.0 °F 49% 29.96 in 10.0 mi SSE 16.1 mph - N/A   Clear
6:52 PM 79.0 °F - 62.1 °F 56% 29.96 in 9.0 mi SSE 16.1 mph - N/A   Clear
7:52 PM 77.0 °F - 62.1 °F 60% 29.96 in 8.0 mi SSE 12.7 mph - N/A   Clear
8:52 PM 73.0 °F - 61.0 °F 66% 29.98 in 9.0 mi SE 11.5 mph - N/A   Clear
9:52 PM 70.0 °F - 63.0 °F 78% 30.01 in 9.0 mi SE 9.2 mph - N/A   Clear
10:52 PM 68.0 °F - 63.0 °F 84% 30.01 in 8.0 mi SE 11.5 mph - N/A   Clear
11:52 PM 66.9 °F - 63.0 °F 87% 30.02 in 8.0 mi SE 10.4 mph - N/A   Clear